CW5255 Weather Reports


time (UTC)temp
F
wind
direction
speed
knots
gust
knots
rain 1hr
in
rain 24hr
in
rain mn
in
humidity
%
barometer
mb
20200407043556 47 187 0.0 0.0 0.00 0.01 0.00 61 1016.9
20200407043055 47 187 0.0 0.0 0.00 0.01 0.00 58 1016.9
20200407042555 47 187 0.0 0.0 0.00 0.01 0.00 58 1017.0
20200407042055 47 187 0.0 0.0 0.00 0.01 0.00 58 1016.9
20200407041555 47 187 0.0 0.0 0.00 0.01 0.00 56 1016.9
20200407041055 47 187 0.0 0.0 0.00 0.01 0.00 55 1016.9
20200407040554 47 187 0.0 0.9 0.00 0.01 0.00 55 1016.9
20200407040054 48 187 0.0 0.9 0.00 0.01 0.00 55 1017.0
20200407035554 48 187 0.0 0.0 0.00 0.01 0.01 55 1016.8
20200407035054 48 187 0.0 0.0 0.00 0.01 0.01 54 1016.8
20200407034555 48 187 0.0 0.0 0.00 0.01 0.01 53 1016.8
20200407034054 48 187 0.0 0.0 0.00 0.01 0.01 54 1016.9
20200407033554 49 187 0.0 0.9 0.00 0.01 0.01 56 1016.9
20200407033054 49 187 0.0 0.9 0.00 0.01 0.01 52 1017.0
20200407032553 49 187 0.9 0.9 0.00 0.01 0.01 52 1017.0
20200407032054 49 187 0.0 0.0 0.00 0.01 0.01 52 1017.0
20200407031553 49 187 0.0 0.0 0.00 0.01 0.01 51 1016.9
20200407031053 49 187 0.0 0.0 0.00 0.01 0.01 52 1016.9
20200407030553 50 187 0.0 0.0 0.00 0.01 0.01 54 1017.0
20200407030054 50 187 0.0 0.9 0.00 0.01 0.01 50 1017.2
20200407025553 50 187 0.0 1.7 0.00 0.01 0.01 49 1017.1
20200407025052 50 187 0.9 1.7 0.00 0.01 0.01 50 1017.0
20200407024552 50 187 0.0 0.0 0.00 0.01 0.01 49 1017.1
20200407024052 50 187 0.0 0.0 0.00 0.01 0.01 48 1017.2
20200407023552 51 187 0.0 0.0 0.00 0.01 0.01 49 1017.3
20200407023052 51 187 0.0 0.0 0.00 0.01 0.01 49 1017.3
20200407022553 51 187 0.0 0.0 0.00 0.01 0.01 49 1017.4
20200407022051 51 187 0.0 0.0 0.00 0.01 0.01 48 1017.4
20200407021551 51 187 0.0 0.0 0.00 0.01 0.01 48 1017.3
20200407021051 52 187 0.0 0.9 0.00 0.01 0.01 48 1017.3
20200407020551 52 187 0.0 1.7 0.00 0.01 0.01 48 1017.4
20200407020051 52 187 0.9 1.7 0.00 0.02 0.01 47 1017.2
20200407015551 53 187 0.0 0.9 0.00 0.02 0.01 46 1017.1
20200407015051 53 187 0.0 2.6 0.00 0.02 0.01 45 1017.2
20200407014551 54 187 0.0 2.6 0.00 0.02 0.01 45 1017.0
20200407014050 54 107 1.7 1.7 0.00 0.02 0.01 44 1017.0
20200407013550 54 107 0.0 1.7 0.00 0.02 0.01 43 1016.9
20200407013050 55 107 0.0 1.7 0.00 0.02 0.01 42 1016.8
20200407012550 55 107 0.9 1.7 0.00 0.02 0.01 42 1016.8
20200407012050 55 107 0.9 0.9 0.00 0.02 0.01 42 1016.8
20200407011549 56 107 0.0 0.0 0.00 0.02 0.01 40 1016.9
20200407011049 56 107 0.0 0.0 0.00 0.02 0.01 40 1017.0
20200407010550 56 107 0.0 0.0 0.00 0.02 0.01 39 1016.8
20200407010049 57 107 0.0 0.0 0.00 0.02 0.01 39 1016.7
20200407005549 57 107 0.0 0.0 0.00 0.02 0.01 39 1016.7
20200407005049 58 107 0.0 1.7 0.00 0.02 0.01 39 1016.5
20200407004549 58 107 0.0 1.7 0.00 0.02 0.01 39 1016.6
20200407004049 58 107 0.9 2.6 0.00 0.02 0.01 38 1016.4
20200407003549 59 107 0.9 2.6 0.00 0.02 0.01 38 1016.5
20200407003049 59 107 0.0 0.9 0.00 0.02 0.01 37 1016.5
20200407002548 60 107 0.0 2.6 0.00 0.02 0.01 37 1016.4
20200407002048 60 107 0.0 2.6 0.00 0.02 0.01 37 1016.2
20200407001548 60 107 1.7 2.6 0.00 0.02 0.01 36 1016.2
20200407001048 61 107 0.0 2.6 0.00 0.02 0.01 36 1016.2
20200407000550 61 107 2.6 4.3 0.00 0.02 0.01 36 1016.1
20200407000047 61 89 2.6 4.3 0.00 0.02 0.01 35 1016.1
20200406235547 62 85 0.9 3.5 0.00 0.02 0.01 35 1016.0
20200406235047 62 85 0.9 3.5 0.00 0.02 0.01 35 1016.0
20200406234547 63 85 0.0 4.3 0.00 0.02 0.01 35 1015.9
20200406234047 63 132 0.0 7.0 0.00 0.02 0.01 34 1016.0
20200406233547 64 134 1.7 7.0 0.00 0.02 0.01 32 1016.0
20200406233046 64 98 0.9 3.5 0.00 0.02 0.01 31 1016.0
20200406232546 64 78 0.9 5.2 0.00 0.02 0.01 30 1015.9
20200406232046 65 78 1.7 5.2 0.00 0.02 0.01 30 1015.9
20200406231546 65 314 1.7 1.7 0.00 0.02 0.01 29 1016.0
20200406231046 65 314 0.0 0.9 0.00 0.02 0.01 28 1015.9
20200406230546 66 314 0.0 0.9 0.00 0.02 0.01 27 1016.2
20200406230116 66 314 0.0 1.7 0.00 0.02 0.01 27 1016.2
20200406225545 66 314 0.0 2.6 0.00 0.02 0.01 27 1016.1
20200406225045 66 314 0.0 2.6 0.00 0.02 0.01 27 1016.1
20200406224545 66 355 1.7 3.5 0.00 0.02 0.01 27 1016.1
20200406224045 66 355 0.9 3.5 0.00 0.02 0.01 26 1016.1
20200406223545 66 303 0.0 2.6 0.00 0.02 0.01 27 1016.1
20200406223045 67 307 1.7 3.5 0.00 0.02 0.01 27 1016.2
20200406222545 67 355 0.0 7.0 0.00 0.02 0.01 26 1016.2
20200406222045 67 319 3.5 7.0 0.00 0.03 0.01 27 1016.2
20200406221544 67 291 2.6 5.2 0.00 0.03 0.01 28 1016.2
20200406221044 67 12 1.7 5.2 0.00 0.03 0.01 26 1016.2
20200406220544 67 336 5.2 7.0 0.00 0.03 0.01 25 1016.2
20200406220044 68 204 0.9 7.0 0.00 0.03 0.01 25 1016.2
20200406215544 68 22 0.9 7.0 0.00 0.03 0.01 24 1016.1
20200406215043 68 336 0.9 7.0 0.00 0.03 0.01 23 1016.2
20200406214613 68 25 3.5 5.2 0.00 0.03 0.01 23 1016.2
20200406214043 68 348 0.0 7.8 0.00 0.04 0.01 23 1016.2
20200406213543 68 31 3.5 7.8 0.00 0.04 0.01 23 1016.2
20200406213043 68 342 3.5 5.2 0.00 0.04 0.01 22 1016.1
20200406212543 68 273 0.0 7.0 0.00 0.04 0.01 23 1016.2
20200406212042 68 284 0.9 7.0 0.00 0.04 0.01 23 1016.3
20200406211543 68 323 2.6 6.1 0.00 0.04 0.01 23 1016.4
20200406211043 68 317 0.9 6.1 0.00 0.04 0.01 27 1016.3
20200406210543 68 292 2.6 6.1 0.00 0.04 0.01 22 1016.5
20200406210112 68 360 1.7 6.1 0.00 0.04 0.01 22 1016.5
20200406205542 68 277 2.6 7.8 0.00 0.04 0.01 25 1016.5
20200406205042 68 43 5.2 7.8 0.00 0.04 0.01 21 1016.6
20200406204541 68 200 2.6 5.2 0.00 0.04 0.01 22 1016.7
20200406204042 68 15 1.7 5.2 0.00 0.04 0.01 23 1016.7
20200406203541 68 67 1.7 7.0 0.00 0.04 0.01 25 1016.8
20200406203041 68 34 1.7 7.0 0.00 0.04 0.01 20 1016.8
20200406202611 68 306 1.7 6.1 0.00 0.04 0.01 22 1016.9
20200406202113 68 80 2.6 7.8 0.00 0.04 0.01 22 1017.0
20200406201612 68 93 0.9 7.8 0.00 0.04 0.01 21 1017.1
20200406201040 68 45 1.7 7.8 0.00 0.04 0.01 22 1016.9
20200406200540 68 269 5.2 7.8 0.00 0.04 0.01 21 1016.9
20200406200110 68 360 7.0 8.7 0.00 0.04 0.01 23 1016.9
20200406195610 68 348 1.7 8.7 0.00 0.04 0.01 24 1017.0
20200406195111 68 5 4.3 8.7 0.00 0.04 0.01 22 1017.1
20200406194610 68 342 2.6 6.1 0.00 0.04 0.01 23 1017.2
20200406194039 68 298 3.5 6.1 0.00 0.04 0.01 25 1017.4
20200406193539 68 345 2.6 6.1 0.00 0.04 0.01 23 1017.5
20200406193039 68 26 0.9 7.8 0.00 0.04 0.01 27 1017.4
20200406192609 68 88 1.7 8.7 0.00 0.04 0.01 25 1017.5
20200406192109 68 338 3.5 8.7 0.00 0.04 0.01 25 1017.7
20200406191609 67 229 1.7 6.1 0.00 0.04 0.01 24 1017.7
20200406191040 67 199 1.7 6.1 0.00 0.04 0.01 25 1017.9
20200406190608 67 69 1.7 7.0 0.00 0.04 0.01 27 1018.0
20200406190108 67 61 1.7 8.7 0.00 0.04 0.01 25 1018.1
20200406185608 67 78 2.6 8.7 0.00 0.04 0.01 25 1018.2
20200406185108 67 94 6.1 7.8 0.00 0.04 0.01 24 1018.3
20200406184608 67 66 7.8 7.8 0.00 0.04 0.01 23 1018.3
20200406184108 67 73 2.6 8.7 0.00 0.04 0.01 24 1018.5
20200406183608 67 13 7.0 8.7 0.00 0.04 0.01 23 1018.5
20200406183107 67 5 5.2 8.7 0.00 0.04 0.01 23 1018.6
20200406182607 67 90 2.6 6.1 0.00 0.04 0.01 23 1018.6
20200406182037 67 52 2.6 4.3 0.00 0.04 0.01 25 1018.7
20200406181607 67 227 1.7 3.5 0.00 0.04 0.01 25 1018.7
20200406181106 67 319 1.7 7.8 0.00 0.04 0.01 24 1018.9
20200406180536 66 299 3.5 10.4 0.00 0.04 0.01 25 1019.0
20200406180120 66 355 3.5 10.4 0.00 0.04 0.01 26 1019.0
20200406175606 65 83 2.6 7.0 0.00 0.04 0.01 29 1019.0
20200406175106 66 57 6.1 7.8 0.00 0.04 0.01 27 1019.1
20200406174606 66 24 3.5 7.8 0.00 0.04 0.01 26 1019.3
20200406174105 66 61 0.0 8.7 0.00 0.04 0.01 25 1019.2
20200406173605 66 86 7.0 8.7 0.00 0.04 0.01 28 1019.4
20200406173106 66 76 8.7 8.7 0.00 0.04 0.01 28 1019.4
20200406172606 66 312 0.0 5.2 0.00 0.04 0.01 29 1019.3
20200406172105 66 250 0.9 8.7 0.00 0.04 0.01 28 1019.4
20200406171606 66 339 1.7 8.7 0.00 0.04 0.01 26 1019.6
20200406171104 65 306 2.6 7.8 0.00 0.04 0.01 21 1019.4
20200406170605 65 342 4.3 7.8 0.00 0.04 0.01 27 1019.5
20200406170104 65 282 1.7 8.7 0.00 0.04 0.01 24 1019.5
20200406165604 65 340 5.2 8.7 0.00 0.04 0.01 22 1019.7
20200406165104 65 348 0.9 8.7 0.00 0.04 0.01 24 1019.8
20200406164604 64 254 2.6 7.8 0.00 0.04 0.01 25 1019.7
20200406164103 64 105 0.9 9.6 0.00 0.04 0.01 31 1019.8
20200406163603 64 303 4.3 9.6 0.00 0.04 0.01 34 1019.8
20200406163103 63 260 1.7 9.6 0.00 0.04 0.01 34 1019.8
20200406162603 63 74 2.6 9.6 0.00 0.04 0.01 32 1019.8
20200406162103 63 81 4.3 7.8 0.00 0.04 0.01 34 1019.9
20200406161613 63 273 0.9 9.6 0.00 0.04 0.01 36 1019.9
20200406161103 62 360 3.5 9.6 0.00 0.04 0.01 34 1019.9
20200406160606 62 19 3.5 7.8 0.00 0.04 0.01 36 1020.0
20200406160103 61 49 1.7 7.8 0.00 0.04 0.01 35 1020.0
20200406155603 61 63 5.2 8.7 0.00 0.04 0.01 36 1020.0
20200406155103 61 28 2.6 8.7 0.00 0.04 0.01 36 1020.1
20200406154602 61 27 0.9 7.8 0.00 0.04 0.01 36 1020.1
20200406154102 61 86 6.1 9.6 0.00 0.04 0.01 39 1020.2
20200406153601 61 338 1.7 9.6 0.00 0.04 0.01 37 1020.3
20200406153102 60 23 1.7 8.7 0.00 0.04 0.01 38 1020.3
20200406152601 60 86 2.6 7.0 0.00 0.04 0.01 44 1020.3
20200406152101 60 67 2.6 8.7 0.00 0.04 0.01 43 1020.3
20200406151601 60 5 0.0 8.7 0.00 0.04 0.01 48 1020.3
20200406151100 60 355 8.7 8.7 0.00 0.04 0.01 47 1020.3
20200406150600 59 335 2.6 8.7 0.00 0.04 0.01 53 1020.3
20200406150100 59 154 1.7 8.7 0.00 0.04 0.01 57 1020.3
20200406145600 58 40 7.8 7.8 0.00 0.04 0.01 56 1020.4
20200406145059 58 355 0.0 7.0 0.00 0.04 0.01 58 1020.4
20200406144600 57 25 7.0 8.7 0.00 0.04 0.01 60 1020.2
20200406144100 57 338 4.3 8.7 0.00 0.04 0.01 62 1020.2
20200406143559 56 12 2.6 7.0 0.00 0.04 0.01 66 1020.2
20200406143059 55 36 0.9 7.0 0.00 0.04 0.01 66 1020.2
20200406142559 55 322 1.7 7.8 0.00 0.04 0.01 69 1020.2
20200406142059 55 5 2.6 7.8 0.00 0.04 0.01 69 1020.2
20200406141559 55 71 5.2 9.6 0.00 0.04 0.01 67 1020.2
20200406141058 54 355 2.6 9.6 0.00 0.04 0.01 69 1020.2
20200406140558 54 350 7.0 8.7 0.00 0.04 0.01 67 1020.1
20200406140058 54 351 5.2 6.1 0.00 0.04 0.01 71 1020.2
20200406135627 54 82 0.9 7.8 0.00 0.04 0.01 69 1020.2
20200406135058 54 350 3.5 7.8 0.00 0.04 0.01 70 1020.1
20200406134557 53 23 5.2 7.0 0.00 0.04 0.01 72 1020.1
20200406134057 53 53 1.7 7.0 0.00 0.04 0.01 72 1020.2
20200406133557 53 15 4.3 7.0 0.00 0.04 0.01 71 1020.2
20200406133057 53 40 0.0 6.1 0.00 0.04 0.01 73 1020.2
20200406132557 53 360 0.9 6.1 0.00 0.04 0.01 74 1020.2
20200406132057 53 69 2.6 7.0 0.00 0.04 0.01 74 1020.2
20200406131557 53 5 5.2 7.0 0.00 0.04 0.01 75 1020.2
20200406131056 53 5 7.0 8.7 0.00 0.04 0.01 75 1020.1
20200406130556 53 63 2.6 9.6 0.00 0.04 0.01 75 1020.1
20200406130056 53 19 4.3 9.6 0.01 0.04 0.01 76 1020.0
20200406125556 53 298 1.7 6.1 0.01 0.04 0.01 78 1020.0
20200406125056 53 30 1.7 6.1 0.01 0.04 0.01 77 1020.0
20200406124556 53 92 6.1 7.8 0.01 0.04 0.01 77 1020.0
20200406124056 52 54 3.5 8.7 0.01 0.04 0.01 79 1019.9
20200406123555 52 17 2.6 8.7 0.01 0.04 0.01 79 1020.0
20200406123055 52 53 0.0 8.7 0.01 0.04 0.01 79 1020.0
20200406122555 52 24 3.5 8.7 0.01 0.04 0.01 79 1020.0
20200406122055 52 5 5.2 7.8 0.01 0.04 0.01 79 1020.0
20200406121555 52 33 0.9 6.1 0.01 0.04 0.01 81 1019.8
20200406121054 52 36 2.6 6.1 0.01 0.04 0.01 81 1019.8
20200406120554 52 348 0.9 6.1 0.01 0.04 0.01 81 1019.7
20200406120054 52 355 5.2 6.1 0.00 0.03 0.00 81 1019.7
20200406115554 52 345 0.9 6.1 0.00 0.03 0.00 81 1019.5
20200406115054 52 360 0.0 6.1 0.00 0.03 0.00 80 1019.6
20200406114554 52 5 0.0 4.3 0.00 0.03 0.00 81 1019.5
20200406114053 52 345 4.3 6.1 0.00 0.03 0.00 82 1019.4
20200406113553 52 360 1.7 6.1 0.00 0.03 0.00 82 1019.3
20200406113054 52 20 0.9 4.3 0.00 0.03 0.00 84 1019.4
20200406112553 52 355 0.9 3.5 0.00 0.03 0.00 84 1019.4
20200406112053 51 339 0.9 2.6 0.00 0.03 0.00 85 1019.3
20200406111554 51 300 0.0 2.6 0.00 0.03 0.00 85 1019.2
20200406111052 51 326 0.0 3.5 0.00 0.03 0.00 85 1019.1
20200406110553 51 319 0.0 3.5 0.00 0.03 0.00 85 1018.9
20200406110052 51 342 0.9 2.6 0.00 0.03 0.00 85 1018.8
20200406105552 51 355 0.0 1.7 0.00 0.03 0.00 85 1018.8
20200406105052 51 355 0.0 1.7 0.00 0.03 0.00 85 1018.8
20200406104553 52 360 0.0 1.7 0.00 0.03 0.00 85 1018.7
20200406104052 52 334 0.0 1.7 0.00 0.03 0.00 85 1018.5
20200406103552 52 334 0.0 1.7 0.00 0.03 0.00 85 1018.4
20200406103051 52 334 0.0 1.7 0.00 0.03 0.00 85 1018.5
20200406102551 52 334 0.9 1.7 0.00 0.03 0.00 85 1018.4
20200406102051 52 334 0.0 0.9 0.00 0.03 0.00 85 1018.3
20200406101551 52 334 0.9 0.9 0.00 0.03 0.00 85 1018.4
20200406101051 52 334 0.0 2.6 0.00 0.03 0.00 85 1018.5
20200406100551 52 334 0.0 2.6 0.00 0.03 0.00 85 1018.4
20200406100051 52 334 0.0 1.7 0.00 0.03 0.00 85 1018.3
20200406095551 52 334 0.0 1.7 0.00 0.03 0.00 85 1018.4
20200406095050 52 334 0.0 1.7 0.00 0.03 0.00 85 1018.4
20200406094550 52 334 0.0 1.7 0.00 0.03 0.00 85 1018.4
20200406094050 52 312 0.0 0.9 0.00 0.03 0.00 86 1018.4
20200406093550 52 312 0.0 0.9 0.00 0.03 0.00 86 1018.3
20200406093050 52 312 0.0 1.7 0.00 0.03 0.00 86 1018.4
20200406092551 52 312 0.9 1.7 0.00 0.03 0.00 86 1018.4
20200406091049 52 311 0.0 1.7 0.00 0.03 0.00 86 1018.2
20200406090550 52 311 0.0 1.7 0.00 0.03 0.00 86 1018.3
20200406090049 52 314 0.0 0.9 0.00 0.03 0.00 85 1018.2
20200406085548 52 314 0.0 1.7 0.00 0.03 0.00 86 1018.4
20200406085048 52 314 0.0 1.7 0.00 0.03 0.00 85 1018.5
20200406084548 52 314 0.0 1.7 0.00 0.03 0.00 86 1018.5
20200406084048 52 314 0.0 2.6 0.00 0.03 0.00 85 1018.5
20200406083548 52 314 0.0 2.6 0.00 0.03 0.00 85 1018.4
20200406083047 52 314 0.0 1.7 0.00 0.03 0.00 85 1018.3
20200406082548 52 314 0.0 1.7 0.00 0.03 0.00 85 1018.3
20200406082047 52 314 0.0 0.9 0.00 0.03 0.00 85 1018.3
20200406081547 52 314 0.0 3.5 0.00 0.03 0.00 85 1018.3
20200406081047 52 314 0.0 3.5 0.00 0.03 0.00 85 1018.3
20200406080546 52 259 0.9 2.6 0.00 0.03 0.00 85 1018.3
20200406080047 52 273 1.7 2.6 0.00 0.03 0.00 85 1018.4
20200406075547 52 29 0.0 1.7 0.00 0.03 0.00 85 1018.4
20200406075046 52 29 0.0 2.6 0.00 0.03 0.00 85 1018.4
20200406074547 52 29 0.9 2.6 0.00 0.03 0.00 85 1018.3
20200406074047 52 29 0.0 1.7 0.00 0.03 0.00 85 1018.4
20200406073546 52 29 0.9 0.9 0.00 0.03 0.00 85 1018.4
20200406073046 52 29 0.0 0.9 0.00 0.03 0.00 85 1018.3
20200406072547 52 29 0.0 1.7 0.00 0.03 0.00 85 1018.3
20200406072045 52 29 0.0 1.7 0.00 0.03 0.00 85 1018.4
20200406071546 52 29 0.0 1.7 0.00 0.03 0.00 85 1018.4
20200406071045 52 29 1.7 1.7 0.00 0.03 0.00 85 1018.5
20200406070545 52 30 0.0 0.9 0.00 0.03 0.00 85 1018.5
20200406070045 52 30 0.0 1.7 0.00 0.03 0.00 84 1018.6
20200406065545 52 30 0.0 1.7 0.00 0.03 0.00 84 1018.5
20200406065045 52 30 0.0 1.7 0.00 0.03 0.00 84 1018.5
20200406064545 53 30 0.9 1.7 0.00 0.03 0.00 83 1018.6
20200406064045 53 30 1.7 1.7 0.00 0.03 0.00 83 1018.6
20200406063544 53 30 0.9 3.5 0.00 0.03 0.00 83 1018.6
20200406063044 53 30 0.0 3.5 0.00 0.03 0.00 82 1018.6
20200406062544 53 78 0.9 3.5 0.00 0.03 0.00 82 1018.6
20200406062044 53 78 0.9 3.5 0.00 0.03 0.00 81 1018.5
20200406061544 54 78 0.9 2.6 0.00 0.03 0.00 81 1018.6
20200406061043 54 78 1.7 2.6 0.00 0.03 0.00 80 1018.6
20200406060543 54 78 0.0 1.7 0.00 0.03 0.00 79 1018.6
20200406060335 55 78 0.0 1.7 0.00 0.03 0.00 79 1018.6
20200406055543 55 78 0.0 2.6 0.00 0.03 0.00 78 1018.3
20200406055043 56 78 0.9 2.6 0.00 0.03 0.00 77 1018.5
20200406054542 56 78 0.0 1.7 0.00 0.03 0.00 77 1018.6
20200406054043 56 78 0.0 0.9 0.00 0.03 0.00 77 1018.5
20200406053543 56 78 0.9 1.7 0.00 0.03 0.00 77 1018.5
20200406053043 56 78 0.0 2.6 0.00 0.03 0.00 77 1018.5
20200406052542 57 78 0.9 4.3 0.00 0.03 0.00 76 1018.5
20200406052042 57 78 0.0 7.8 0.00 0.03 0.00 76 1018.6
20200406051542 57 86 3.5 7.8 0.00 0.03 0.00 75 1018.5
20200406051112 57 63 1.7 7.8 0.00 0.03 0.00 76 1018.5
20200406050541 57 319 0.0 7.8 0.00 0.03 0.00 75 1018.6
20200406050041 57 334 0.9 3.5 0.00 0.03 0.00 75 1018.5
20200406045557 57 159 3.5 9.6 0.00 0.03 0.00 76 1018.4
20200406045041 57 319 2.6 9.6 0.00 0.03 0.00 75 1018.4
20200406044541 57 323 0.0 7.8 0.00 0.03 0.00 76 1018.5
20200406044041 57 226 1.7 7.8 0.00 0.03 0.00 76 1018.5